Language selection

Weather shortcuts

Lake Nipigon: Past 24 Hour Conditions

 

Cameron Falls

04:00 PM EDT 17 June 2024
Disclaimer

This table is a summary of hourly weather conditions for the past 24 hours.
Please note that these observations might not always be representative of weather conditions over their associated marine area.

Date / Time
(EDT)
Wind(knots) Conditions Visibility(km) Pressure(kPa) Air tempC) Relative humidity(%) Dew pointC)
17 June 2024
16:00 ESE 3 N/A N/A 101.1 19 69 13
15:00 SSE 3 N/A N/A 101.1 19 71 13
14:00 S 2 N/A N/A 101.2 20 66 13
13:00 SSW 5 N/A N/A 101.1 20 60 12
12:00 WSW 2 N/A N/A 101.0 20 62 12
11:00 W 4 N/A N/A 101.0 18 68 12
10:00 NW 1 N/A N/A 101.0 17 75 12
9:00 NNE 2 N/A N/A 100.9 13 97 13
8:00 S 2 N/A N/A 100.9 13 99 12
7:00 SSE 2 N/A N/A 100.8 12 99 12
6:00 SSW 2 N/A N/A 100.7 12 99 12
5:00 calm N/A N/A 100.6 13 99 13
4:00 S 2 N/A N/A 100.6 13 99 13
3:00 SSE 2 N/A N/A 100.6 13 99 13
2:00 SSE 3 N/A N/A 100.5 13 99 13
1:00 SSE 4 N/A N/A 100.5 13 99 13
0:00 SSE 5 N/A N/A 100.5 13 99 12
16 June 2024
23:00 S 3 N/A N/A 100.5 12 98 12
22:00 ENE 4 N/A N/A 100.4 12 98 12
21:00 ESE 3 N/A N/A 100.4 12 98 12
20:00 SSE 4 N/A N/A 100.4 11 98 11
19:00 SSE 6 N/A N/A 100.4 11 97 11
18:00 SE 5 N/A N/A 100.4 12 93 11
17:00 SSE 3 N/A N/A 100.5 12 92 10
16:00 SSE 4 N/A N/A 100.4 11 92 10

Zoom-in to make a selection

Map of Great Lakes - Lake Superior marine weather areas Mid Superior - 45001 East Superior - 45004 West Superior - 45006 Slate Island - 45136 Lake Of the Woods - 45148 Kenora Airport Royal Island Armstrong Airport Caribou Island Marathon Airport Pukaskwa National Park Thunder Bay Airport Welcome Island Little Flatland Island Sault Ste. Marie Airport Wawa Airport
Legend:
buoy Buoy
land station Land Station

Great Lakes - Lake Superior Area

Another Region

Features

New Predicting and Alerting Coastal Flooding Program

Find out about coastal flooding coverage, forecasts and warnings in your region

Date modified: